Weather History for KGED - October, 2012

Change the Weather History Date:

Tuesday, October 2, 2012

  Actual Average Record
Temperature  
Mean Temperature 74 °F 62 °F  
Max Temperature 83 °F 73 °F 89 °F (1986)
Min Temperature 65 °F 52 °F 37 °F (1972)
Degree Days  
Heating Degree Days 0 4  
Month to date heating degree days 4 8  
Since 1 July heating degree days 32 46  
Cooling Degree Days 9 2  
Month to date cooling degree days 9 4  
Year to date cooling degree days 1565 1175  
Growing Degree Days 23 (Base 50)    
Moisture  
Dew Point 68 °F    
Average Humidity 84    
Maximum Humidity 94    
Minimum Humidity 74    
Precipitation  
Precipitation 0.37 in 0.11 in 0.93 in (1989)
Month to date precipitation 0.37 0.21  
Year to date precipitation 23.74 33.61  
Sea Level Pressure  
Sea Level Pressure 29.94 in    
Wind  
Wind Speed 6 mph (SE)    
Max Wind Speed 13 mph    
Max Gust Speed 17 mph    
Visibility 9 miles    
Events Fog , Rain    
T = Trace of Precipitation, MM = Missing Value Source: NWS Daily Summary

Daily Weather History Graph

Daily Weather History Graph

Search for Another Location

Airport or City:

Trip Planner

Search our weather history database for the weather conditions in past years. The results will help you decide how hot, cold, wet, or windy it might be!

Date:

Astronomy

Oct. 02, 2012 Rise Set
Actual Time 6:58 AM EDT 6:41 PM EDT
Civil Twilight 6:32 AM EDT 7:08 PM EDT
Nautical Twilight 6:01 AM EDT 7:39 PM EDT
Astronomical Twilight 5:30 AM EDT 8:10 PM EDT
Moon 7:55 PM EDT (10/2) 9:21 AM EDT (10/2)
Length of Visible Light 12h 36m
Length of Day
11h 43m
Waning Gibbous, 94% of the Moon is Illuminated
Oct 2
Waning Gibbous
Oct 8
Last Quarter
Oct 15
New
Oct 21
First Quarter
Oct 29
Full

Hourly Weather History & Observations

Time (EDT) Temp. Heat Index Dew Point Humidity Pressure Visibility Wind Dir Wind Speed Gust Speed Precip Events Conditions
12:28 AM 64.4 °F - 57.2 °F 77% 29.97 in 10.0 mi Calm Calm - N/A   Overcast
12:54 AM 64.9 °F - 57.9 °F 78% 29.97 in 10.0 mi Calm Calm - N/A   Overcast
1:37 AM 66.2 °F - 59.0 °F 78% 29.96 in 10.0 mi East 3.5 mph - N/A   Overcast
1:54 AM 66.0 °F - 59.0 °F 78% 29.96 in 10.0 mi East 4.6 mph - N/A   Overcast
2:54 AM 66.9 °F - 60.1 °F 79% 29.95 in 10.0 mi East 3.5 mph - N/A   Overcast
3:52 AM 66.2 °F - 60.8 °F 83% 29.95 in 10.0 mi ENE 3.5 mph - N/A   Overcast
3:54 AM 66.9 °F - 61.0 °F 81% 29.96 in 10.0 mi ENE 3.5 mph - N/A   Overcast
4:54 AM 68.0 °F - 60.1 °F 76% 29.96 in 10.0 mi Calm Calm - N/A   Overcast
5:19 AM 68.0 °F - 60.8 °F 78% 29.95 in 10.0 mi East 3.5 mph - N/A   Overcast
5:26 AM 68.0 °F - 60.8 °F 78% 29.96 in 10.0 mi East 3.5 mph - N/A   Overcast
5:36 AM 68.0 °F - 60.8 °F 78% 29.95 in 10.0 mi East 3.5 mph - N/A   Overcast
5:54 AM 68.0 °F - 62.1 °F 81% 29.95 in 10.0 mi ESE 5.8 mph - 0.00 in Rain Light Rain
6:16 AM 68.0 °F - 62.6 °F 83% 29.95 in 10.0 mi East 6.9 mph - 0.00 in   Overcast
6:54 AM 69.1 °F - 63.0 °F 81% 29.95 in 10.0 mi ESE 6.9 mph - 0.00 in   Overcast
7:54 AM 70.0 °F - 64.9 °F 84% 29.96 in 10.0 mi ESE 8.1 mph - N/A   Overcast
8:54 AM 72.0 °F - 66.0 °F 81% 29.95 in 10.0 mi ESE 10.4 mph - N/A   Overcast
9:54 AM 75.0 °F - 68.0 °F 79% 29.97 in 10.0 mi SE 10.4 mph - N/A   Overcast
10:54 AM 78.1 °F - 70.0 °F 76% 29.95 in 10.0 mi SSE 8.1 mph - N/A   Mostly Cloudy
11:16 AM 73.4 °F - 71.6 °F 94% 29.96 in 2.0 mi SSE 9.2 mph - 0.05 in Rain Heavy Rain
11:19 AM 73.4 °F - 71.6 °F 94% 29.96 in 1.0 mi SSE 10.4 mph - 0.14 in Rain Heavy Rain
11:26 AM 73.4 °F - 71.6 °F 94% 29.95 in 0.5 mi SE 10.4 mph - 0.27 in Fog , Rain Heavy Rain
11:34 AM 73.4 °F - 71.6 °F 94% 29.95 in 4.0 mi SE 9.2 mph - 0.27 in Rain Light Rain
11:42 AM 73.4 °F - 71.6 °F 94% 29.95 in 9.0 mi SE 8.1 mph - 0.27 in   Overcast
11:54 AM 73.9 °F - 71.1 °F 91% 29.95 in 10.0 mi SE 8.1 mph - 0.27 in   Overcast
12:54 PM 75.0 °F - 72.0 °F 90% 29.93 in 10.0 mi SSE 5.8 mph - N/A   Overcast
1:54 PM 79.0 °F - 73.9 °F 84% 29.92 in 10.0 mi SSE 8.1 mph - N/A   Overcast
2:03 PM 78.8 °F - 73.4 °F 83% 29.91 in 10.0 mi South 9.2 mph - N/A   Overcast
2:54 PM 78.1 °F - 73.9 °F 87% 29.91 in 3.0 mi SSE 9.2 mph - 0.03 in Rain Light Rain
3:41 PM 82.4 °F 89.5 °F 75.2 °F 79% 29.90 in 10.0 mi South 8.1 mph - 0.00 in   Mostly Cloudy
3:51 PM 82.4 °F 89.5 °F 75.2 °F 79% 29.90 in 10.0 mi South 10.4 mph - 0.00 in   Mostly Cloudy
3:54 PM 82.0 °F 87.9 °F 73.9 °F 76% 29.89 in 10.0 mi South 9.2 mph - 0.00 in   Mostly Cloudy
4:54 PM 80.1 °F 84.5 °F 73.9 °F 81% 29.90 in 9.0 mi South 10.4 mph - 0.07 in   Overcast
5:54 PM 79.0 °F - 73.0 °F 82% 29.90 in 10.0 mi South 8.1 mph - N/A   Clear
6:54 PM 75.9 °F - 73.0 °F 91% 29.92 in 10.0 mi SSE 4.6 mph - N/A   Partly Cloudy
7:50 PM 77.0 °F - 73.4 °F 89% 29.93 in 10.0 mi South 5.8 mph - N/A   Overcast
8:29 PM 75.2 °F - 73.4 °F 94% 29.94 in 10.0 mi SE 4.6 mph - N/A   Overcast
8:54 PM 75.9 °F - 73.0 °F 91% 29.95 in 10.0 mi South 5.8 mph - N/A   Overcast
10:54 PM 75.9 °F - 73.0 °F 91% 29.96 in 7.0 mi South 4.6 mph - N/A   Overcast
11:28 PM 75.2 °F - 73.4 °F 94% 29.97 in 6.0 mi South 4.6 mph - N/A   Overcast
11:54 PM 75.0 °F - 73.0 °F 94% 29.96 in 6.0 mi SSW 3.5 mph - N/A   Overcast